Regional Weather Roundup
Issued by NWS

Home | Current Version | Previous Version | Text Only | Print | Product List | Glossary Off
Versions: 1 2 3 4 5 6 7 8 9 10 11 12 13 14 15 16 17 18 19 20 21 22 23 24 25 26 27 28 29 30 31 32 33 34 35 36 37 38 39 40 41 42 43 44 45 46 47 48 49 50

000
ASUS45 KBOU 190407
RWRCO

WEATHER ROUNDUP FOR COLORADO
NATIONAL WEATHER SERVICE DENVER/BOULDER CO
1000 PM MDT SAT OCT 18 2014

NOTE: "FAIR" INDICATES FEW OR NO CLOUDS BELOW 12000 FEET WITH NO
SIGNIFICANT WEATHER AND/OR OBSTRUCTIONS TO VISIBILITY.

COZ001>005-013-030-031-190500-
...NORTHWEST COLORADO...

CITY           SKY/WX    TMP DP  RH WIND       PRES   REMARKS
CRAIG          MOCLDY    42  31  64 CALM      30.17R
HAYDEN         PTCLDY    50  28  43 CALM      30.17S
MEEKER         PTCLDY    45  34  65 VRB5      30.18R
MOUNT WERNER   NOT AVBL
STEAMBOAT SPGS PTCLDY    48  30  49 CALM      30.19R
WALDEN         PTCLDY    36  25  64 SE8       30.23S
$$

COZ006>008-011-190500-
...WEST CENTRAL VALLEYS...

CITY           SKY/WX    TMP DP  RH WIND       PRES   REMARKS
GRAND JUNCTION MOCLDY    56  33  42 E7        30.09R
MONTROSE       CLOUDY    56  38  50 SE8       30.16S
EAGLE          CLEAR     46  34  61 E7        30.20R
RIFLE          MOCLDY    56  34  43 CALM      30.13R
DELTA          CLOUDY    60  38  43 N6        30.12R
NUCLA          LGT RAIN  59  37  44 SE5       30.18R
$$

COZ017>023-064>068-190500-
...SOUTHWEST COLORADO...

CITY           SKY/WX    TMP DP  RH WIND       PRES   REMARKS
DURANGO        CLOUDY    52  41  66 CALM      30.20R
CORTEZ         CLOUDY    53  39  59 E3        30.15R
PAGOSA SPRINGS CLOUDY    50  38  65 CALM      30.26R
TELLURIDE      CLOUDY    47  38  70 CALM      30.32S
WOLF CREEK PAS FLURRIES  32  32 100 W9        30.44S WCI  24
$$

COZ009-010-012-014-032>034-037-058>063-190500-
...CENTRAL COLORADO...

CITY           SKY/WX    TMP DP  RH WIND       PRES   REMARKS
ASPEN          PTCLDY    44  30  57 S7        30.24R
BUENA VISTA    MOCLDY    50  35  56 CALM      30.23S
COPPER MTN     CLEAR     41  27  56 W16       30.44S
BERTHOUD PASS  FAIR      32  30  93 NW14      30.46S WCI  22
COTTONWOOD PAS MOCLDY    50  27  40 CALM      30.33S
GUNNISON       CLOUDY    50  28  43 CALM      30.25R
KREMMLING      PTCLDY    41  28  60 CALM        N/A
LEADVILLE      PTCLDY    33  24  69 NE3       30.32S
MONARCH PASS   CLOUDY    36  28  75 SW15      30.54S
SALIDA         MOCLDY    54  36  51 CALM      30.28R
SUNLIGHT       MOCLDY    43  30  61 CALM      30.40S
WILKERSON PASS NOT AVBL
$$

COZ069>075-190500-
...SAN LUIS VALLEY/SANGRE DE CRISTO MOUNTAINS...

CITY           SKY/WX    TMP DP  RH WIND       PRES   REMARKS
ALAMOSA        CLOUDY    50  38  63 SE10      30.22R
LA VETA PASS   MOCLDY    39  34  81 S13G18    30.34S
SAGUACHE       CLOUDY    52  37  58 SE7       30.25R
$$

COZ035-036-038>040-190500-
...NORTHERN COLORADO FRONT RANGE...

CITY           SKY/WX    TMP DP  RH WIND       PRES   REMARKS
DENVER INTL AP PTCLDY    56  39  53 CALM      30.07S
DMNS CITY PARK   N/A     53  40  63 S3        30.07S
AURORA         PTCLDY    50  39  65 S8        30.09S
FRONT RANGE AP CLEAR     52  41  66 SW8       30.08S
ERIE MUNI ARPT CLEAR     46  40  82 SW3       30.07S
BOULDER MUN AP CLEAR     52  37  58 CALM      30.07R
CENTENNIAL     CLEAR     50  39  66 S8        30.09S
BROOMFIELD     PTCLDY    55  37  50 CALM      30.09S
FORT COLLINS   CLEAR     50  39  66 N6        30.08S
LONGMONT       CLEAR     47  40  76 CALM      30.08S
$$

COZ041-046-047-076>085-087-088-190500-
...PIKES PEAK/PALMER DIVIDE AND SOUTHERN FOOTHILLS...

CITY           SKY/WX    TMP DP  RH WIND       PRES   REMARKS
COLO. SPRINGS  PTCLDY    44  37  76 N7        30.15S
A. F. ACADEMY  CLEAR     40  36  85 N8        30.16S
ELLICOTT       NOT AVBL
FALCON         CLEAR     41  34  77 W5        30.18S
FORT CARSON    CLEAR     46  38  73 N8        30.12S
LIMON          CLEAR     42  39  89 S5        30.11S
MONUMENT HILL  CLEAR     45  34  65 SW9       30.15S
TRINIDAD       CLEAR     54  43  66 W17       30.11S
$$

COZ042>045-048>051-090-091-190500-
...NORTHEAST COLORADO...

CITY           SKY/WX    TMP DP  RH WIND       PRES   REMARKS
GREELEY ARPT   CLEAR     45  34  65 NW8       30.06S
AKRON          CLEAR     49  41  74 S10       30.06S
BURLINGTON     CLEAR     52  39  61 S15       30.10R
WRAY           CLEAR     51  40  66 SE5       30.07F
STERLING       CLEAR     45  41  87 SW5       30.04S
HOLYOKE        CLEAR     48  41  76 S6        30.07S
FORT MORGAN    CLEAR     47  37  66 E3        30.05S
$$

COZ086-089-092>099-190500-
...SOUTHEAST COLORADO...

CITY           SKY/WX    TMP DP  RH WIND       PRES   REMARKS
PUEBLO         CLEAR     53  42  66 NE8       30.07S
LA JUNTA       CLEAR     51  45  79 SE6       30.05F
LAMAR          CLEAR     55  45  68 S21G26    30.05F
SPRINGFIELD      N/A     49  46  90 S13       30.14F
$$



USA.gov is the U.S. government's official web portal to all federal, state and local government web resources and services.